Back to catalog

BB3

AliveCommunicationsPO
NORAD 57760·PAYLOAD·🇺🇸 United States

Launched Sep 2, 2023 from Vandenberg Space Force Base

Loading…

Next Passes (next 24 hours)

TLE

FreshSource: Space-Track

Epoch: Sep 14, 2026, 10:41 UTC

1 57760U 23133D   26257.44519058  .00000583  00000-0  63768-4 0  9995
2 57760  80.9938 250.5524 0009128  48.9945 311.2054 14.86534326155230

Track BB3 in real time with AllMySat

Download on the App Store